Regional Weather Roundup
Issued by NWS Kansas City/Pleasant Hill, MO

Home | Current Version | Previous Version | Graphics & Text | Print | Product List | Glossary Off
Versions: 1 2 3 4 5 6 7 8 9 10 11 12 13 14 15 16 17 18 19 20 21 22 23 24 25 26 27 28 29 30 31 32 33 34 35 36 37 38 39 40 41 42 43 44 45 46 47 48 49 50

541
ASUS43 KEAX 300410
RWREAX

WEATHER ROUNDUP FOR EASTERN KANSAS AND NORTHWEST MISSOURI
NATIONAL WEATHER SERVICE KANSAS CITY/PLEASANT HILL MO
1100 PM CDT THU SEP 29 2016

KSZ040-057-103>105-MOZ028-029-037-043-300500-
...KANSAS CITY METROPOLITAN AREA...

CITY           SKY/WX    TMP DP  RH WIND       PRES   REMARKS
K.C. INTL      CLEAR     57  47  69 N7        30.30S
K.C. DOWNTOWN  CLEAR     60  50  69 CALM      30.29S
LEES SUMMIT    CLEAR     59  49  69 N5        30.30R
OLATHE - IXD   CLEAR     54  50  86 NW5       30.31S
OLATHE - OJC   CLEAR     58  48  69 N5        30.30S
LAWRENCE       CLEAR     51  50  96 NW6       30.31S

$$

MOZ001>008-011>017-020>025-030>033-038>040-044>046-053-054-300500-
...NORTHERN AND CENTRAL MISSOURI...

CITY           SKY/WX    TMP DP  RH WIND       PRES   REMARKS
ST. JOSEPH     CLEAR     51  49  92 CALM      30.31S
MOSBY          CLEAR     52  52 100 CALM      30.29S
WHITEMAN AFB   CLEAR     57  51  80 NW7       30.25S
CLINTON        CLEAR     55  50  82 CALM      30.27S
SEDALIA        CLEAR     60  50  69 NW7       30.26S
WARSAW         NOT AVBL
CHILLICOTHE      N/A     60  51  72 N6        30.29S
KIRKSVILLE     CLEAR     57  47  69 N7        30.27R

$$

MOZ041-047>049-056>058-063>065-088>090-097-300500-
...EASTERN AND SOUTHERN MISSOURI...

CITY           SKY/WX    TMP DP  RH WIND       PRES   REMARKS
ST. LOUIS INTL CLOUDY    63  57  81 N12       30.18F
SPIRIT OF STL  CLOUDY    63  58  83 N8        30.17F
COLUMBIA       CLOUDY    64  51  62 N7        30.22S
JEFFERSON CITY CLOUDY    66  51  58 N5        30.21S
ROLLA          CLOUDY    62  53  72 N3        30.20R
OSAGE BEACH    CLEAR     61  52  72 VRB5      30.22F
SPRINGFIELD    CLEAR     56  47  71 NW6       30.25S
BRANSON        CLEAR     57  46  67 NW5       30.25F
JOPLIN         CLEAR     53  49  86 CALM      30.29R
WEST PLAINS    CLEAR     59  51  75 NW7       30.21F

$$

IAZ060-094-KSZ022-034>040-054-083-096-NEZ052-066-093-300500-
...KANSAS...SOUTHEAST NEBRASKA AND IOWA...

CITY           SKY/WX    TMP DP  RH WIND       PRES   REMARKS
TOPEKA         CLEAR     54  50  86 CALM      30.31S
MANHATTAN      CLEAR     50  48  93 CALM      30.32S
EMPORIA        CLEAR     54  50  86 NW5       30.31S
CHANUTE        CLEAR     54  49  83 N6        30.29F
WICHITA        CLEAR     56  51  84 N3        30.32R
OMAHA          CLEAR     53  46  77 NW6       30.34S
LINCOLN        CLEAR     51  47  86 N6        30.36R
FALLS CITY     CLEAR     56  48  74 N3        30.32S
LAMONI         CLEAR     55  49  80 N7        30.30S
DES MOINES     CLEAR     61  48  62 NE8       30.31S

$$





USA.gov is the U.S. government's official web portal to all federal, state and local government web resources and services.